Weather History for Philip, SD

Change the Weather History Date:

Saturday, November 12, 2011

  Actual Average Record
Temperature  
Mean Temperature 45 °F 36 °F  
Max Temperature 62 °F 49 °F 75 °F (1954)
Min Temperature 27 °F 22 °F -5 °F (1976)
Degree Days  
Heating Degree Days 20 29  
Month to date heating degree days 303 318  
Since 1 July heating degree days 846 1021  
Cooling Degree Days 0 0  
Month to date cooling degree days 0 0  
Year to date cooling degree days 837 818  
Moisture  
Dew Point 16 °F    
Average Humidity 33    
Maximum Humidity 50    
Minimum Humidity 15    
Precipitation  
Precipitation 0.00 in 0.03 in 0.19 in (1972)
Month to date precipitation T 0.33  
Year to date precipitation 15.35 16.63  
Sea Level Pressure  
Sea Level Pressure 29.32 in    
Wind  
Wind Speed 6 mph (West)    
Max Wind Speed 17 mph    
Max Gust Speed 22 mph    
Visibility 10 miles    
Events      
T = Trace of Precipitation, MM = Missing Value Source: NWS Daily Summary

Daily Weather History Graph

Daily Weather History Graph

Search for Another Location

Airport:

Trip Planner

Search our weather history database for the weather conditions in past years. The results will help you decide how hot, cold, wet, or windy it might be!

Date:

Astronomy

Nov. 12, 2011 Rise Set
Actual Time 6:37 AM MST 4:23 PM MST
Civil Twilight 6:06 AM MST 4:54 PM MST
Nautical Twilight 5:31 AM MST 5:28 PM MST
Astronomical Twilight 4:57 AM MST 6:02 PM MST
Moon 5:36 PM MST (11/12) 8:25 AM MST (11/12)
Length of Visible Light 10h 47m
Length of Day
9h 45m
Waning Gibbous, 97% of the Moon is Illuminated
Nov 12
Waning Gibbous
Nov 18
Last Quarter
Nov 24
New
Dec 2
First Quarter
Dec 10
Full

Hourly Weather History & Observations

Time (MST) Temp. Windchill Dew Point Humidity Pressure Visibility Wind Dir Wind Speed Gust Speed Precip Events Conditions
12:55 AM 33.1 °F 30.0 °F 12.9 °F 43% 29.44 in 10.0 mi WSW 3.5 mph - N/A   Clear
1:55 AM 30.9 °F 27.5 °F 12.9 °F 47% 29.41 in 10.0 mi West 3.5 mph - N/A   Clear
2:55 AM 32.0 °F 27.5 °F 12.9 °F 45% 29.38 in 10.0 mi SW 4.6 mph - N/A   Clear
3:55 AM 32.0 °F 27.5 °F 14.0 °F 48% 29.37 in 10.0 mi WSW 4.6 mph - N/A   Clear
4:55 AM 28.9 °F - 12.9 °F 51% 29.37 in 10.0 mi Calm Calm - N/A   Clear
5:55 AM 28.9 °F - 12.9 °F 51% 29.35 in 10.0 mi Calm Calm - N/A   Clear
6:55 AM 36.0 °F 32.1 °F 14.0 °F 41% 29.33 in 10.0 mi West 4.6 mph - N/A   Clear
7:55 AM 42.1 °F 37.1 °F 15.1 °F 34% 29.34 in 10.0 mi West 8.1 mph - N/A   Clear
8:55 AM 46.9 °F - 16.0 °F 29% 29.33 in 10.0 mi West 8.1 mph - N/A   Clear
9:55 AM 55.0 °F - 15.1 °F 21% 29.32 in 10.0 mi West 10.4 mph - N/A   Clear
10:55 AM 60.1 °F - 12.9 °F 16% 29.32 in 10.0 mi West 11.5 mph - N/A   Clear
11:55 AM 61.0 °F - 12.9 °F 15% 29.30 in 10.0 mi West 8.1 mph - N/A   Clear
12:55 PM 61.0 °F - 15.1 °F 17% 29.28 in 10.0 mi WNW 15.0 mph - N/A   Clear
1:55 PM 57.0 °F - 12.9 °F 18% 29.30 in 10.0 mi West 10.4 mph - N/A   Clear
2:55 PM 57.0 °F - 16.0 °F 20% 29.31 in 10.0 mi West 10.4 mph - N/A   Clear
3:55 PM 53.1 °F - 17.1 °F 24% 29.31 in 10.0 mi WNW 6.9 mph - N/A   Clear
4:55 PM 46.0 °F - 16.0 °F 30% 29.32 in 10.0 mi Calm Calm - N/A   Clear
5:55 PM 42.1 °F - 17.1 °F 37% 29.32 in 10.0 mi Calm Calm - N/A   Clear
6:55 PM 42.1 °F 37.1 °F 17.1 °F 37% 29.31 in 10.0 mi West 8.1 mph - N/A   Clear
7:55 PM 42.1 °F 37.1 °F 18.0 °F 38% 29.29 in 10.0 mi West 8.1 mph - N/A   Mostly Cloudy
8:55 PM 39.9 °F 37.8 °F 17.1 °F 40% 29.27 in 10.0 mi SE 3.5 mph - N/A   Mostly Cloudy
9:55 PM 36.0 °F 31.1 °F 17.1 °F 46% 29.26 in 10.0 mi NW 5.8 mph - N/A   Scattered Clouds
10:55 PM 37.0 °F 34.5 °F 19.9 °F 50% 29.24 in 10.0 mi NNW 3.5 mph - N/A   Overcast
11:55 PM 42.1 °F 36.6 °F 25.0 °F 51% 29.24 in 10.0 mi NNW 9.2 mph - N/A   Mostly Cloudy